This is the latest recevied weather packets stored in our database for station/object E25HML-13. If no packets are shown the sender has not sent any weather packets the latest 10 day(s).
| Time | Temp. | Humidity | Pressure | Rain* | Wind** | Luminosity | Snow |
|---|---|---|---|---|---|---|---|
| 1777484896 | 35.56° C | 51% | 1006.2 hPa | - | - | - | - |
| 1777484596 | 35.56° C | 51% | 1006.3 hPa | - | - | - | - |
| 1777484296 | 35.56° C | 51% | 1006.5 hPa | - | - | - | - |
| 1777483996 | 36.11° C | 51% | 1006.4 hPa | - | - | - | - |
| 1777483696 | 35.56° C | 51% | 1006.4 hPa | - | - | - | - |
| 1777483396 | 35.56° C | 51% | 1006.4 hPa | - | - | - | - |
| 1777483096 | 36.11° C | 50% | 1006.5 hPa | - | - | - | - |
| 1777482796 | 36.11° C | 50% | 1006.5 hPa | - | - | - | - |
| 1777482497 | 36.11° C | 50% | 1006.6 hPa | - | - | - | - |
| 1777482197 | 36.11° C | 50% | 1006.8 hPa | - | - | - | - |
| 1777481896 | 36.11° C | 50% | 1006.9 hPa | - | - | - | - |
| 1777481596 | 36.11° C | 50% | 1006.9 hPa | - | - | - | - |
| 1777481296 | 36.11° C | 50% | 1006.9 hPa | - | - | - | - |
| 1777480996 | 36.11° C | 50% | 1006.7 hPa | - | - | - | - |
| 1777480695 | 36.67° C | 49% | 1006.6 hPa | - | - | - | - |
| 1777480397 | 36.67° C | 49% | 1006.8 hPa | - | - | - | - |
| 1777480096 | 36.67° C | 49% | 1007 hPa | - | - | - | - |
| 1777479797 | 37.22° C | 49% | 1006.9 hPa | - | - | - | - |
| 1777479498 | 36.67° C | 50% | 1007 hPa | - | - | - | - |
| 1777479196 | 35.56° C | 52% | 1006.8 hPa | - | - | - | - |
| 1777478896 | 35.56° C | 52% | 1006.6 hPa | - | - | - | - |
| 1777478596 | 35.56° C | 52% | 1007 hPa | - | - | - | - |
| 1777478296 | 35.56° C | 52% | 1006.9 hPa | - | - | - | - |
| 1777477997 | 35.56° C | 52% | 1006.3 hPa | - | - | - | - |
| 1777477696 | 35° C | 51% | 1006.2 hPa | - | - | - | - |
* Rain since midnight (hover to see other rain measurements)
** Current wind speed in m/s (hover to see current wind gust speed)